Погода в Раматюэле

Франция     43°12′59″N   6°36′49″E
темп.,
°C
ветер,
м/с
пор.,
м/с
влажн.,
%
обл.,
%
осадки,
мм/ч
давл.,
гПа
погр.,
м
11 апреля, вс
вс1123:00+11в61197100 7.8 1015753
02:00+11св3897100 17.5 1014675
05:00+9с2392100 2.9 1013155
08:00+10всв259096 2.9 1014354
11:00+12в578593 0.0 1016671
14:00+12в578099 0.1 1017680
17:00+12в588499 0.0 1016657
20:00+11в4789100 0.3 1017632
12 апреля, пн
пн1223:00+11всв3794100 0.6 1018613
02:00+11в4796100 1.0 1017633
05:00+11вюв4898100 3.9 1014706
08:00+10ссз2595100 13.1 1014311
11:00+12зсз467310 0.0 1014628
14:00+16зсз56483 0.0 10131353
17:00+15зсз77435 0.0 10111608
20:00+11сз595726 0.3 1012775
13 апреля, вт
вт1323:00+9сз4671100 1.1 1014351
02:00+7зсз2464100 2.6 1016235
05:00+6зсз376041 0.1 1015369
08:00+5сз24631 0.1 1016191
11:00+11сз33465 0.0 1016736
14:00+16ююв12389 0.0 10171580
17:00+15ю34423 0.0 10171299
20:00+11ююв22580 0.0 1018165
14 апреля, ср
ср1423:00+9всв22710 0.0 1021136
02:00+8с12823 0.0 1021119
05:00+7сз228430 0.0 102257
08:00+8с227793 0.1 1022120
11:00+9всв247898 0.3 1022596
14:00+10в347789 0.8 1022681
17:00+10юв226894 0.4 1020753
20:00+10ю116994 0.4 1020353
15 апреля, чт
чт1523:00+8всв238542 0.0 1021227
02:00+6ссз11901 0.1 102150
05:00+6ссз228916 0.0 102051
08:00+7ссз12829 0.1 1021107
11:00+12всв335533 0.1 10211404
14:00+13в544672 0.4 10201828
17:00+12вюв54508 0.0 10191435
20:00+10в23595 0.0 1019429